Location: Baia Mare
(47.6567°N, 23.5850°E)
Time: 13:17:52
(UTC+02:00)

ISS - Pass Details

Date: 01 January 2019
Orbit: 401 x 408 km, 51.6° (Epoch: 16 December)

Event Time Altitude Azimuth Distance (km) Brightness Sun altitude
Exits shadow 07:24:42 11° 293° (WNW) 1,412 -1.8 -8.0°
Maximum altitude 07:27:41 39° 4° (N) 620 -3.1 -7.6°
Drops below altitude 10° 07:30:48 10° 75° (ENE) 1,464 -0.2 -7.1°
Sets 07:32:58 0° 83° (E) 2,323 1.1 -6.8°
